Location: Arrien
(43.3167°N, 0.1500°W)
Time: 04:47:11
(UTC+00:00)

CZ-4 R/B - Pass Details

Date: 15 October 2021
Orbit: 531 x 595 km, 97.8° (Epoch: 02 December)

Event Time Altitude Azimuth Distance (km) Brightness Sun altitude
Rises 19:37:43 0° 198° (SSW) 2,692 4.9 -26.2°
Reaches altitude 10° 19:40:09 10° 213° (SSW) 1,816 4.2 -26.6°
Maximum altitude 19:43:17 22° 266° (W) 1,226 3.7 -27.2°
Drops below altitude 10° 19:46:28 10° 319° (NW) 1,859 4.7 -27.7°
Sets 19:49:00 0° 334° (NNW) 2,774 5.5 -28.2°
